1395705629727,1.11325
1395705689727,1.11936
1395705749727,1.12273
1395705809727,1.12028
1395705869727,1.12918
1395705929727,1.13333
1395705989727,1.11699
1395706049727,1.11696
1395706109727,1.11562
1395706169727,1.12593
1395706229727,1.12483
1395706289727,1.11834
1395706349727,1.12697
1395706409727,1.11600
1395706469727,1.12073
1395706529727,1.12667
1395706589727,1.11797
1395706649727,1.12104
1395706709727,1.12372
1395706769727,1.12600
1395706829727,1.12216
1395706889727,1.11936
1395706949727,1.12470
1395707009727,1.11367
1395707069727,1.12452
1395707129727,1.12381
1395707189727,1.12297
1395707249727,1.11753
1395707309727,1.12258
1395707369727,1.12138
1395707429727,1.11588
1395707489727,1.11620
1395707549727,1.11265
1395707609727,1.12100
1395707669727,1.11917
1395707729727,1.11968
1395707789727,1.11607
1395707849727,1.11966
1395707909727,1.12646
1395707969727,1.12234
1395708029727,1.12474
1395708089727,1.13155
1395708149727,1.12272
1395708209727,1.12464
1395708269727,1.11452
1395708329727,1.12853
1395708389727,1.12235
1395708449727,1.11642
1395708509727,1.12492
1395708569727,1.12402
1395708629727,1.12672
1395708689727,1.12078
1395708749727,1.13424
1395708809727,1.12322
1395708869727,1.11600
1395708929727,1.12329
1395708989727,1.11846
1395709049727,1.12712
1395709109727,1.12526
1395709169727,1.12737
1395709229740,1.13093
1395709289740,1.12519
1395709349740,1.12659
1395709409740,1.12586
1395709469740,1.13667
1395709529740,1.12177
1395709589740,1.13015
1395709649740,1.12874
1395709709740,1.12760
1395709769740,1.11867
1395709829740,1.12455
1395709889740,1.12950
1395709949740,1.12359
1395710009740,1.12598
1395710069740,1.11946
1395710129740,1.11551
1395710189740,1.12326
1395710249740,1.11940
1395710309740,1.11974
1395710369740,1.12894
1395710429740,1.11808
1395710489740,1.13100
1395710549740,1.12120
1395710609740,1.12746
1395710669740,1.13342
1395710729740,1.12847
1395710789740,1.12305
1395710849740,1.12401
1395710909740,1.12409
1395710969740,1.13023
1395711029740,1.11880
1395711089740,1.11835
1395711149740,1.12492
1395711209740,1.12580
1395711269740,1.11829
1395711329740,1.12517
1395711389740,1.13046
1395711449740,1.12517
1395711509740,1.12058
1395711569740,1.12073
1395711629740,1.11884
1395711689740,1.11901
1395711749740,1.12459
1395711809740,1.12999
1395711869740,1.11720
1395711929740,1.11562
1395711989740,1.13512
1395712049740,1.12429
1395712109740,1.12083
1395712169740,1.12250
1395712229740,1.12338
1395712289740,1.11741
1395712349740,1.12039
1395712409740,1.11763
1395712469740,1.11685
1395712529740,1.11727
1395712589740,1.12449
1395712649740,1.11954
1395712709740,1.11474
1395712769740,1.11934
1395712829752,1.11591
1395712889752,1.12826
1395712949752,1.13056
1395713009752,1.12466
1395713069752,1.12866
1395713129752,1.11999
1395713189752,1.12336
1395713249752,1.12472
1395713309752,1.11820
1395713369752,1.12333
1395713429752,1.11997
1395713489752,1.12123
1395713549752,1.12822
1395713609752,1.11702
1395713669752,1.12577
1395713729752,1.12698
1395713789752,1.12881
1395713849752,1.12392
1395713909752,1.11302
1395713969752,1.11967
1395714029752,1.12232
1395714089752,1.12154
1395714149752,1.11856
1395714209752,1.12265
1395714269752,1.12291
1395714329752,1.11774
1395714389752,1.12181
1395714449752,1.12133
1395714509752,1.12135
1395714569752,1.11884
1395714629752,1.11275
1395714689752,1.12400
1395714749752,1.11808
1395714809752,1.11876
1395714869752,1.11890
1395714929752,1.11927
1395714989752,1.11877
1395715049752,1.11415
1395715109752,1.12906
1395715169752,1.11732
1395715229752,1.12570
1395715289752,1.12662
1395715349752,1.12136
1395715409752,1.12429
1395715469752,1.12751
1395715529752,1.12305
1395715589752,1.11949
1395715649752,1.12183
1395715709752,1.12555
1395715769752,1.12239
1395715829752,1.12008
1395715889752,1.11511
1395715949752,1.12533
1395716009752,1.11966
1395716069752,1.12664
1395716129752,1.11825
1395716189752,1.11845
1395716249752,1.11991
1395716309752,1.12799
1395716369752,1.11849
1395716429765,1.12426
1395716489765,1.12360
1395716549765,1.12650
1395716609765,1.13273
1395716669765,1.12828
1395716729765,1.12488
1395716789765,1.11557
1395716849765,1.12634
1395716909765,1.12270
1395716969765,1.11926
1395717029765,1.12130
1395717089765,1.13047
1395717629765,1.12671
1395717689765,1.12848
1395717749765,1.13327
1395717809765,1.13622
1395717869765,1.14337
1395717929765,1.14097
1395717989765,1.13204
1395718049765,1.14361
1395718109765,1.13231
1395718169765,1.15017
1395718229765,1.14235
1395718289765,1.13316
1395718349765,1.14254
1395718409765,1.15143
1395718469765,1.15172
1395718529765,1.14771
1395718589765,1.14616
1395718649765,1.13614
1395718709765,1.14358
1395718769765,1.13735
1395718829765,1.14215
1395718889765,1.14204
1395718949765,1.13397
1395719009765,1.13897
1395719069765,1.13212
1395719129765,1.13848
1395719189765,1.13705
1395719249765,1.13783
1395719309765,1.13334
1395719369765,1.13884
1395719429765,1.14290
1395719489765,1.12547
1395719549765,1.13549
1395719609765,1.13508
1395719669765,1.13752
1395719729765,1.13929
1395719789765,1.13260
1395719849765,1.13081
1395719909765,1.14325
1395719969765,1.13371
1395720029777,1.13521
1395720089777,1.13783
1395720149777,1.13102
1395720209777,1.13786
1395720269777,1.13190
1395720329777,1.13283
1395720389777,1.13985
1395720449777,1.13902
1395720509777,1.13308
1395720569777,1.13468
1395720629777,1.13444
1395720689777,1.13302
1395720749777,1.13502
1395720809777,1.13786
1395720869777,1.13713
1395720929777,1.14511
1395720989777,1.13418
1395721049777,1.14576
1395721109777,1.14518
1395721169777,1.14444
1395721229777,1.15009
1395721289777,1.15870
1395721349777,1.15251
1395721409777,1.15481
1395721469777,1.15891
1395721529777,1.14837
1395721589777,1.16209
1395721649777,1.14613
1395721709777,1.14496
1395721769777,1.15137
1395721829777,1.16295
1395721889777,1.15641
1395721949777,1.15732
1395722009777,1.15059
1395722069777,1.16280
1395722129777,1.16076
1395722189777,1.15937
1395722249777,1.14880
1395722309777,1.15577
1395722369777,1.14984
1395722429777,1.15202
1395722489777,1.14738
1395722549777,1.15018
1395722609777,1.15180
1395722669777,1.14665
1395722729777,1.14538
1395722789777,1.14420
1395722849777,1.14874
1395722909777,1.14740
1395722969777,1.15512
1395723029777,1.15418
1395723089777,1.15017
1395723149777,1.14906
1395723209777,1.15702
1395723269777,1.15911
1395723329777,1.16071
1395723389777,1.16133
1395723449777,1.15790
1395723509777,1.16733
1395723569777,1.15215
1395723629789,1.16490
1395723689789,1.16042
1395723749789,1.15474
1395723809789,1.16355
1395723869789,1.15359
1395723929789,1.14833
1395723989789,1.15785
1395724049789,1.16285
1395724109789,1.15236
1395724169789,1.14878
1395724229789,1.15289
1395724289789,1.15610
1395724349789,1.14868
1395724409789,1.14698
1395724469789,1.14957
1395724529789,1.14274
1395724589789,1.15536
1395724649789,1.14470
1395724709789,1.15633
1395724769789,1.14565
1395724829789,1.14150
1395724889789,1.14898
1395724949789,1.14845
1395725009789,1.15208
1395725069789,1.15568
1395725129789,1.16474
1395725189789,1.16085
1395725249789,1.16967
1395725309789,1.17681
1395725369789,1.16856
1395725429789,1.17583
1395725489789,1.17594
1395725549789,1.16902
1395725609789,1.18178
1395725669789,1.17222
1395725729789,1.16457
1395725789789,1.18025
1395725849789,1.18054
1395725909789,1.17357
1395725969789,1.16570
1395726029789,1.17410
1395726089789,1.17032
1395726149789,1.17158
1395726209789,1.17681
1395726269789,1.17090
1395726329789,1.16622
1395726389789,1.15855
1395726449789,1.16292
1395726509789,1.15907
1395726569789,1.15970
1395726629789,1.16021
1395726689789,1.14792
1395726749789,1.15792
1395726809789,1.16053
1395726869789,1.14021
1395726929789,1.14595
1395726989789,1.14554
1395727049789,1.14601
1395727109789,1.15815
1395727169789,1.15264
1395727229801,1.14854
1395727289801,1.14283
1395727349802,1.13139
1395727409802,1.14566
1395727469801,1.13754
1395727529801,1.15099
1395727589801,1.13537
1395727649801,1.13776
1395727709802,1.13101
1395727769802,1.15045
1395727829802,1.13889
1395727889802,1.14645
1395727949802,1.14167
1395728009802,1.13624
1395728069802,1.13640
1395728129801,1.13931
1395728189801,1.13761
1395728249801,1.15191
1395728309801,1.14007
1395728369801,1.13032
1395728429801,1.12923
1395728489801,1.14412
1395728549801,1.15641
1395728609801,1.14301
1395728669801,1.14816
1395728729802,1.14780
1395728789801,1.13953
1395728849801,1.14981
1395728909801,1.14778
1395728969801,1.13403
1395729029802,1.14602
1395729089802,1.14659
1395729149802,1.14393
1395729209802,1.13165
1395729269802,1.13446
1395729329802,1.13711
1395729389802,1.15056
1395729449801,1.13792
1395729509801,1.13706
1395729569801,1.13408
1395729629801,1.13808
1395729689801,1.12492
1395729749801,1.14237
1395729809801,1.13195
1395729869801,1.13533
1395729929801,1.13813
1395729989801,1.14946
1395730049802,1.13286
1395730109802,1.14844
1395730169801,1.14653
1395730229801,1.13930
1395730289801,1.13960
1395730349801,1.13195
1395730409802,1.12979
1395730469802,1.13779
1395730529802,1.13991
1395730589802,1.13726
1395730649802,1.12862
1395730709802,1.12953
1395730769802,1.13331
1395730829814,1.13920
1395730889814,1.13319
1395730949814,1.13418
1395731009814,1.12366
1395731069814,1.14114
1395731129814,1.13786
1395731189814,1.13338
1395731249814,1.13163
1395731309814,1.13929
1395731369814,1.13557
1395731429814,1.13354
1395731489814,1.12783
1395731549814,1.13148
1395731609814,1.13341
1395731669814,1.13103
1395731729814,1.13570
1395731789814,1.13435
1395731849814,1.13289
1395731909814,1.13481
1395731969814,1.13563
1395732029814,1.13299
1395732089814,1.13204
1395732149814,1.13384
1395732209814,1.12790
1395732269814,1.12834
1395732329814,1.13607
1395732389814,1.13856
1395732449814,1.12610
1395732509814,1.13124
1395732569814,1.12857
1395732629814,1.13080
1395732689814,1.12939
1395732749814,1.12696
1395732809814,1.13370
1395732869814,1.13014
1395732929814,1.12959
1395732989814,1.13165
1395733049814,1.13223
1395733109814,1.12938
1395733169814,1.12261
1395733229814,1.13866
1395733289814,1.13264
1395733349814,1.14215
1395733409814,1.13352
1395733469814,1.13279
1395733529814,1.13380
1395733589814,1.13482
1395733649814,1.14033
1395733709814,1.13263
1395733769814,1.13542
1395733829814,1.13537
1395733889814,1.13180
1395733949814,1.13752
1395734009814,1.13142
1395734069814,1.14803
1395734129814,1.13895
1395734189814,1.15026
1395734249814,1.13986
1395734309814,1.13826
1395734369814,1.14545
1395734429826,1.14624
1395734489826,1.14751
1395734549826,1.14669
1395734609826,1.14254
1395734669826,1.13945
1395734729826,1.14653
1395734789826,1.14199
1395734849826,1.14112
1395734909826,1.14268
1395734969826,1.14041
1395735029826,1.13990
1395735089826,1.13994
1395735149826,1.14293
1395735209826,1.14816
1395735269826,1.13940
1395735329826,1.14506
1395735389826,1.14764
1395735449826,1.14341
1395735509826,1.13721
1395735569826,1.13279
1395735629826,1.14396
1395735689826,1.13831
1395735749826,1.13950
1395735809826,1.14011
1395735869826,1.13773
1395735929826,1.13473
1395735989826,1.13463
1395736049826,1.13628
1395736109826,1.14141
1395736169826,1.13411
1395736229826,1.14010
1395736289826,1.14680
1395736349826,1.14747
1395736409826,1.13892
1395736469826,1.15529
1395736529826,1.15265
1395736589826,1.14703
1395736649826,1.14739
1395736709826,1.14450
1395736769826,1.15007
1395736829826,1.13881
1395736889826,1.14234
1395736949826,1.13894
1395737009826,1.14600
1395737069826,1.14537
1395737129826,1.14973
1395737189826,1.14403
1395737249826,1.13667
1395737309826,1.14513
1395737369826,1.14553
1395737429826,1.15090
1395737489826,1.14672
1395737549826,1.14179
1395737609826,1.13375
1395737669826,1.13219
1395737729826,1.13880
1395737789826,1.13573
1395737849826,1.14616
1395737909826,1.14033
1395737969826,1.13808
1395738029838,1.13393
1395738089838,1.14158
1395738149838,1.13477
1395738209838,1.13936
1395738269838,1.13462
1395738329838,1.13898
1395738389838,1.13357
1395738449838,1.14011
1395738509838,1.13240
1395738569838,1.13845
1395738629838,1.13588
1395738689838,1.13200
1395738749838,1.13118
1395738809838,1.13720
1395738869838,1.13150
1395738929838,1.13887
1395738989838,1.14016
1395739049838,1.13562
1395739109838,1.13573
1395739169838,1.14192
1395739229838,1.13500
1395739289838,1.14267
1395739349838,1.14247
1395739409838,1.14026
1395739469838,1.13332
1395739529838,1.14435
1395739589838,1.13255
1395739649838,1.13295
1395739709838,1.12942
1395739769838,1.14032
1395739829838,1.14670
1395739889838,1.14036
1395739949838,1.13478
1395740009838,1.13763
1395740069838,1.13717
1395740129838,1.13023
1395740189838,1.13558
1395740249838,1.13428
1395740309838,1.14484
1395740369838,1.14133
1395740429838,1.14084
1395740489838,1.13933
1395740549838,1.13138
1395740609838,1.14679
1395740669838,1.13366
1395740729838,1.13733
1395740789838,1.14697
1395740849838,1.14395
1395740909838,1.14350
1395740969838,1.14032
1395741029838,1.13057
1395741089838,1.14140
1395741149838,1.14814
1395741209838,1.13941
1395741269838,1.13832
1395741329838,1.13759
1395741389838,1.14113
1395741449838,1.13728
1395741509838,1.14457
1395741569838,1.13977
1395741629850,1.14363
1395741689850,1.14245
1395741749850,1.14316
1395741809850,1.14641
1395741869850,1.14358
1395741929850,1.14919
1395741989850,1.15021
1395742049850,1.14552
1395742109850,1.14376
1395742169850,1.15268
1395742229850,1.14265
1395742289850,1.14638
1395742349850,1.14462
1395742409850,1.14073
1395742469850,1.14715
1395742529850,1.14650
1395742589850,1.13751
1395742649850,1.13450
1395742709850,1.14278
1395742769850,1.13947
1395742829850,1.14530
1395742889850,1.13948
1395742949850,1.13926
1395743009850,1.13770
1395743069850,1.13682
1395743129850,1.13705
1395743189850,1.13623
1395743249850,1.13053
1395743309850,1.13911
1395743369850,1.14316
1395743429850,1.14075
1395743489850,1.13595
1395743549850,1.13498
1395743609850,1.13540
1395743669850,1.12909
1395743729850,1.13380
1395743789850,1.12506
1395743849850,1.12394
1395743909850,1.12877
1395743969850,1.13149
1395744029850,1.12561
1395744089850,1.13290
1395744149850,1.12545
1395744209850,1.12312
1395744269850,1.13539
1395744329850,1.13914
1395744389850,1.13189
1395744449850,1.13701
1395744509850,1.12160
1395744569850,1.12803
1395744629850,1.12909
1395744689850,1.12986
1395744749850,1.13158
1395744809850,1.13372
1395744869850,1.13252
1395744929850,1.12796
1395744989850,1.13358
1395745049850,1.12943
1395745109850,1.13282
1395745169850,1.13055
1395745229862,1.14057
1395745289862,1.13779
1395745349862,1.13236
1395745409862,1.13735
1395745469862,1.13286
1395745529862,1.14333
1395745589862,1.13734
1395745649862,1.14332
1395745709862,1.12335
1395745769862,1.14357
1395745829862,1.13681
1395745889862,1.14173
1395745949862,1.14052
1395746009862,1.13922
1395746069862,1.13917
1395746129862,1.14113
1395746189862,1.13632
1395746249862,1.14006
1395746309862,1.14070
1395746369862,1.13911
1395746429862,1.14322
1395746489862,1.13918
1395746549862,1.13853
1395746609862,1.14054
1395746669862,1.13237
1395746729862,1.13926
1395746789862,1.13220
1395746849862,1.13666
1395746909862,1.13696
1395746969862,1.14050
1395747029862,1.13243
1395747089862,1.13845
1395747149862,1.12907
1395747209862,1.13294
1395747269862,1.14678
1395747329862,1.13152
1395747389862,1.14300
1395747449862,1.13770
1395747509862,1.13268
1395747569862,1.13876
1395747629862,1.14026
1395747689862,1.13388
1395747749862,1.13815
1395747809862,1.13163
1395747869862,1.12700
1395747929862,1.13085
1395747989862,1.13324
1395748049862,1.13872
1395748109862,1.13242
1395748169862,1.13598
1395748229862,1.13509
1395748289862,1.13349
1395748349862,1.14679
1395748409862,1.12262
1395748469862,1.13347
1395748529862,1.12590
1395748589862,1.13676
1395748649862,1.12854
1395748709862,1.13288
1395748769862,1.12573
1395748829874,1.12858
1395748889874,1.13773
1395748949874,1.12532
1395749009874,1.13070
1395749069874,1.13020
1395749129874,1.13193
1395749189874,1.12446
1395749249874,1.12598
1395749309874,1.12741
1395749369874,1.12795
1395749429874,1.13706
1395749489874,1.12776
1395749549874,1.12284
1395749609874,1.12085
1395749669874,1.12964
1395749729874,1.13460
1395749789874,1.12763
1395749849874,1.12169
1395749909874,1.13236
1395749969874,1.13929
1395750029873,1.12581
1395750089874,1.12967
1395750149874,1.12676
1395750209874,1.12335
1395750269874,1.12506
1395750329874,1.12457
1395750389874,1.11834
1395750449874,1.12417
1395750509874,1.12296
1395750569874,1.13549
1395750629874,1.12796
1395750689874,1.13495
1395750749874,1.12234
1395750809874,1.12127
1395750869874,1.12644
1395750929874,1.12957
1395750989874,1.12196
1395751049874,1.12333
1395751109874,1.13194
1395751169874,1.13099
1395751229874,1.12839
1395751289874,1.11757
1395751349873,1.12676
1395751409873,1.12051
1395751469874,1.12122
1395751529874,1.11684
1395751589874,1.12338
1395751649874,1.12200
1395751709874,1.12916
1395751769874,1.12512
1395751829874,1.12210
1395751889874,1.12782
1395751949874,1.12164
1395752009874,1.12912
1395752069874,1.12739
1395752129874,1.12902
1395752189874,1.13646
1395752249874,1.12110
1395752309874,1.12316
1395752369874,1.12680
1395752429875,1.11844
1395752489875,1.11975
1395752549875,1.12606
1395752609875,1.12456
1395752669876,1.11865
1395752729876,1.11904
1395752789876,1.12161
1395752849876,1.12686
1395752909875,1.12706
1395752969875,1.12439
1395753029875,1.12793
1395753089875,1.12197
1395753149875,1.13078
1395753209875,1.11488
1395753269875,1.12687
1395753329875,1.12683
1395753389875,1.11567
1395753449875,1.12112
1395753509875,1.11525
1395753569875,1.11710
1395753629875,1.12239
1395753689875,1.11652
1395753749875,1.11343
1395753809875,1.11222
1395753869875,1.11763
1395753929875,1.11808
1395753989876,1.11756
1395754049876,1.11263
1395754109876,1.11678
1395754169876,1.11057
1395754229875,1.09971
1395754289875,1.11757
1395754349875,1.11516
1395754409875,1.11812
1395754469875,1.10656
1395754529875,1.10505
1395754589875,1.11078
1395754649875,1.11180
1395754709875,1.11144
1395754769875,1.11773
1395754829875,1.12298
1395754889875,1.11260
1395754949875,1.11172
1395755009875,1.11799
1395755069875,1.11337
1395755129875,1.11621
1395755189875,1.11432
1395755249875,1.11252
1395755309875,1.12334
1395755369876,1.12279
1395755429876,1.12311
1395755489876,1.11732
1395755549876,1.12452
1395755609875,1.12846
1395755669875,1.11128
1395755729875,1.11633
1395755789875,1.11615
1395755849875,1.12180
1395755909875,1.10898
1395755969875,1.10643
1395756029886,1.11741
1395756089886,1.10885
1395756149886,1.10732
1395756209886,1.10770
1395756269886,1.11489
1395756329886,1.11090
1395756389886,1.10061
1395756449886,1.10758
1395756509886,1.11115
1395756569886,1.10712
1395756629886,1.10992
1395756689886,1.10865
1395756749886,1.10965
1395756809886,1.10091
1395756869886,1.10212
1395756929886,1.11289
1395756989886,1.11409
1395757049886,1.11966
1395757109886,1.11391
1395757169886,1.12147
1395757229886,1.11302
1395757289886,1.11848
1395757349886,1.11315
1395757409886,1.11790
1395757469886,1.11420
1395757529886,1.12728
1395757589886,1.12375
1395757649886,1.12004
1395757709886,1.11822
1395757769886,1.11873
1395757829886,1.12039
1395757889886,1.11849
1395757949886,1.12414
1395758009886,1.12180
1395758069886,1.10646
1395758129886,1.11840
1395758189886,1.11207
1395758249886,1.11930
1395758309886,1.11719
1395758369886,1.11928
1395758429886,1.11168
1395758489886,1.11312
1395758549886,1.11074
1395758609886,1.11767
1395758669886,1.11502
1395758729886,1.10875
1395758789886,1.11569
1395758849886,1.11851
1395758909886,1.10784
1395758969886,1.11233
1395759029886,1.11821
1395759089886,1.11925
1395759149886,1.11324
1395759209886,1.10911
1395759269886,1.11304
1395759329886,1.11231
1395759389886,1.11154
1395759449886,1.10875
1395759509886,1.11428
1395759569886,1.12374
1395759629896,1.12273
1395759689896,1.12033
1395759749896,1.10880
1395759809896,1.11483
1395759869896,1.12912
1395759929896,1.10928
1395759989896,1.11947
1395760049896,1.10753
1395760109896,1.11871
1395760169896,1.11299
1395760229896,1.11716
1395760289896,1.11674
1395760349896,1.12492
1395760409896,1.11140
1395760469896,1.11237
1395760529896,1.12905
1395760589896,1.12521
1395760649896,1.11381
1395760709896,1.11521
1395760769896,1.11989
1395760829896,1.12092
1395760889896,1.12791
1395760949896,1.12312
1395761009896,1.12760
1395761069896,1.12438
1395761129896,1.11672
1395761189896,1.13591
1395761249896,1.13832
1395761309896,1.13197
1395761369896,1.12997
1395761429896,1.12770
1395761489896,1.12910
1395761549896,1.12647
1395761609896,1.11558
1395761669896,1.13307
1395761729896,1.12168
1395761789896,1.13029
1395761849896,1.13243
1395761909896,1.12964
1395761969896,1.12744
1395762029896,1.12420
1395762089896,1.12871
1395762149896,1.12304
1395762209896,1.12781
1395762269896,1.12747
1395762329896,1.12722
1395762389896,1.12730
1395762449896,1.11447
1395762509896,1.12099
1395762569896,1.12931
1395762629896,1.11921
1395762689896,1.12727
1395762749896,1.12490
1395762809896,1.11874
1395762869896,1.12604
1395762929896,1.12227
1395762989896,1.11940
1395763049896,1.11326
1395763109896,1.11539
1395763169896,1.12375
1395763229907,1.12153
1395763289907,1.12435
1395763349907,1.12409
1395763409907,1.12534
1395763469907,1.12102
1395763529907,1.12587
1395763589907,1.12962
1395763649907,1.11659
1395763709907,1.11918
1395763769907,1.11594
1395763829907,1.11578
1395763889907,1.13068
1395763949907,1.12796
1395764009907,1.12794
1395764069907,1.12441
1395764129907,1.12341
1395764189907,1.11619
1395764249907,1.10972
1395764309907,1.12727
1395764369907,1.12376
1395764429907,1.11912
1395764489907,1.12534
1395764549907,1.12126
1395764609907,1.12300
1395764669907,1.11773
1395764729907,1.12134
1395764789907,1.12427
1395764849907,1.11988
1395764909907,1.11728
1395764969907,1.12778
1395765029907,1.12265
1395765089907,1.11798
1395765149907,1.12462
1395765209907,1.11414
1395765269907,1.11907
1395765329907,1.12346
1395765389907,1.12395
1395765449907,1.12322
1395765509907,1.10952
1395765569907,1.11956
1395765629907,1.11876
1395765689907,1.11867
1395765749907,1.12745
1395765809907,1.12170
1395765869907,1.11848
1395765929907,1.12093
1395765989907,1.11811
1395766049907,1.11806
1395766109907,1.11695
1395766169907,1.11505
1395766229907,1.12640
1395766289907,1.12470
1395766349907,1.12195
1395766409907,1.11856
1395766469907,1.11941
1395766529907,1.11725
1395766589907,1.12957
1395766649907,1.12692
1395766709907,1.11585
1395766769907,1.11461
1395766829917,1.12268
1395766889917,1.11711
1395766949917,1.11129
1395767009917,1.12862
1395767069917,1.11673
1395767129917,1.11653
1395767189917,1.12511
1395767249917,1.11963
1395767309917,1.12322
1395767369917,1.12273
1395767429917,1.12642
1395767489917,1.12993
1395767549917,1.12113
1395767609917,1.12670
1395767669917,1.11789
1395767729917,1.11530
1395767789917,1.12544
1395767849917,1.11877
1395767909917,1.11582
1395767969917,1.11812
1395768029917,1.12303
1395768089917,1.11413
1395768149917,1.11157
1395768209917,1.11905
1395768269917,1.12072
1395768329917,1.12113
1395768389917,1.12629
1395768449917,1.12820
1395768509917,1.12277
1395768569917,1.12227
1395768629917,1.11618
1395768689917,1.12091
1395768749917,1.12485
1395768809917,1.12740
1395768869917,1.12521
1395768929917,1.12917
1395768989917,1.12624
1395769049917,1.13179
1395769109917,1.13372
1395769169917,1.14482
1395769229917,1.14433
1395769289917,1.13303
1395769349917,1.13646
1395769409917,1.14166
1395769469917,1.13631
1395769529917,1.13674
1395769589917,1.13071
1395769649917,1.14294
1395769709917,1.13274
1395769769917,1.13387
1395769829917,1.14758
1395769889917,1.13519
1395769949917,1.13140
1395770009917,1.14018
1395770069917,1.12940
1395770129917,1.13618
1395770189917,1.12396
1395770249917,1.12751
1395770309917,1.13163
1395770369917,1.13767
1395770429928,1.12280
1395770489928,1.13192
1395770549928,1.12812
1395770609928,1.13221
1395770669928,1.13075
1395770729928,1.12966
1395770789928,1.12304
1395770849928,1.12365
1395770909928,1.13257
1395770969928,1.13414
1395771029928,1.11880
1395771089928,1.12823
1395771149928,1.12057
1395771209928,1.11999
1395771269928,1.12655
1395771329928,1.12101
1395771389928,1.12072
1395771449928,1.11937